Location: Asheville, NC
(35.6000°N, 82.5500°W)
Time: 16:20:47
(UTC-05:00)

Vanguard 3 - Pass Details

Date: 10 February 2018
Orbit: 508 x 3264 km, 33.3° (Epoch: 21 February)

Event Time Altitude Azimuth Distance (km) Brightness Sun altitude
Rises 00:10:27 0° 277° (W) 3,862 - -67.4°
Reaches altitude 10° 00:12:47 10° 270° (W) 3,177 - -67.6°
Maximum altitude 00:20:35 46° 200° (SSW) 2,239 - -68.1°
Drops below altitude 10° 00:33:59 10° 134° (SE) 5,331 - -68.6°
Sets 00:39:13 0° 129° (SE) 6,701 - -68.7°
